BEIDOU-2 IGSO-1

Last updated on Thu Jul 03 2025 00:02:45 GMT+0000 (Coordinated Universal Time)

1 36828U 10036A 25183.48830755 -.00000060 00000+0 00000+0 0 9991 2 36828 54.2786 166.1234 0049363 218.2071 179.9541 1.00272912 54593
UTC large
Height (km)
Speed (km/s)
/
Latitude / Longitude
Inclination (degrees)
Orbital Period (minutes)
Azimuth
Elevation
Range (km)
Doppler Factor

Next 0 passes for location: London (51.5072 / 0.1276)

Sorry there are no passes over London.